[[{"header":{"parameterUnit":"m.s-1","parameterCategory":1,"la1":30.2991,"la2":30.254,"lo1":-89.0895,"lo2":-89.0444,"dy":0.0017,"dx":0.0017,"nx":28,"ny":28,"refTime":"2025-03-29T21:00:00:Z","depth":0,"parameterNumber":2,"parameterNumberName":"U-component_of_WINDS"},"data":[0,0,0,0,0,0,0,0,0,0,0,0,0,0,0,0,0,0,0,0,0,0,0,0,0,0,0,0,0,0,0,0,0,0,0,0,0,0,0,0,0,0,0,0,0,0,0,0,0,0,0,0,0,0,0,0,0,0,-5.482,-5.4821,0,-5.499,-5.4992,-5.4994,-5.5018,-5.5016,-5.5014,-5.5013,-5.5184,-5.519,-5.5196,0,0,0,0,0,0,0,0,0,0,0,0,0,-5.4513,-5.4519,-5.4819,-5.4822,-5.4824,-5.4989,-5.4992,-5.4994,-5.5018,-5.5016,-5.5014,-5.5012,-5.5182,-5.5189,-5.5197,0,0,0,0,0,0,0,0,0,0,0,0,0,-5.4661,-5.4521,-5.4819,-5.4856,-5.4861,-5.4989,-5.4992,-5.4995,-5.5018,-5.5016,-5.5014,-5.5011,-5.518,-5.5189,-5.5198,-5.53,0,0,-5.5225,-5.5229,0,0,0,0,0,0,0,0,-5.4653,-5.4672,-5.4848,-5.4853,-5.4859,-5.498,-5.4947,-5.5097,-5.5019,-5.4958,-5.5013,-5.501,-5.5118,-5.5132,-5.5169,-5.5309,-5.5316,-5.5226,-5.5232,-5.5235,-5.5238,0,0,0,0,0,0,0,-5.4642,-5.4665,-5.4887,-5.4851,-5.4857,-5.4863,-5.4881,-5.4975,-5.5049,-5.4963,-5.4966,-5.4986,-5.5121,-5.516,-5.5173,-5.5318,-5.5226,-5.5234,-5.5239,-5.5243,-5.5551,-5.5553,0,0,0,0,0,0,-5.4626,-5.4656,-5.4881,-5.4892,-5.4748,-5.487,-5.4891,-5.4944,-5.5048,-5.5062,-5.4987,-5.4986,-5.5146,-5.5163,-5.5179,-5.5305,-5.5235,-5.5244,-5.5249,-5.5548,-5.5551,-5.5554,0,0,0,0,0,0,-5.4619,-5.4646,-5.4874,-5.4775,-5.4804,-5.4878,-5.4937,-5.4948,-5.4988,-5.5066,-5.5079,-5.5014,-5.5145,-5.5167,-5.527,-5.5312,-5.5248,-5.5256,-5.5545,-5.5549,-5.5553,-5.5559,0,0,0,0,0,0,-5.461,-5.4643,-5.4683,-5.4776,-5.481,-5.4963,-5.494,-5.4953,-5.5004,-5.5004,-5.5095,-5.5108,-5.5145,-5.5257,-5.5279,-5.5323,-5.5263,-5.5541,-5.5547,-5.5551,-5.5555,-5.5563,-5.5569,0,0,0,0,0,-5.4599,-5.4678,-5.4685,-5.4712,-5.4861,-5.4965,-5.4985,-5.5026,-5.5007,-5.5047,-5.5098,-5.5105,-5.5305,-5.5267,-5.5293,-5.534,-5.5539,-5.5545,-5.5551,-5.5552,-5.5561,-5.5569,0,0,0,0,0,0,-5.4586,-5.469,-5.47,-5.481,-5.4879,-5.4969,-5.5021,-5.5034,-5.5109,-5.5105,-5.5153,-5.5173,-5.5274,-5.5318,-5.5275,-5.5445,-5.542,-5.5431,-5.5412,-5.5421,-5.5428,-5.5413,-5.5271,0,0,0,0,0,-5.4597,-5.4673,-5.476,-5.4849,-5.4883,-5.4946,-5.4993,-5.502,-5.5092,-5.5121,-5.5179,-5.5248,-5.5327,-5.5377,-5.5454,-5.5563,-5.5582,-5.5608,-5.5615,-5.562,-5.5629,-5.5689,-5.5701,-5.5575,-5.5574,-5.5574,0,0,-5.4618,-5.4684,-5.4729,-5.4848,-5.4904,-5.4981,-5.497,-5.5053,-5.511,-5.5133,-5.5234,-5.528,-5.536,-5.5467,-5.5517,-5.5507,-5.5669,-5.5628,-5.5632,-5.5637,-5.5696,-5.5708,-5.5719,-5.5579,-5.5578,-5.5577,0,0,-5.4696,-5.4755,-5.4835,-5.4892,-5.4978,-5.502,-5.5039,-5.5129,-5.516,-5.5263,-5.5281,-5.5351,-5.5485,-5.5541,-5.5587,-5.569,-5.5698,-5.5714,-5.5748,-5.5806,-5.5816,-5.5825,-5.5859,-5.5871,-5.5722,-5.5722,-5.5722,0,-5.471,-5.4828,-5.4874,-5.4956,-5.5007,-5.5034,-5.5115,-5.5168,-5.5274,-5.5308,-5.5296,-5.5465,-5.5522,-5.5641,-5.5666,-5.5704,-5.5726,-5.5701,-5.5811,-5.5821,-5.583,-5.5863,-5.5876,-5.5723,-5.5723,-5.5723,-5.5723,0,-5.4842,-5.4923,-5.4978,-5.508,-5.5138,-5.5219,-5.5277,-5.533,-5.5352,-5.5395,-5.55,-5.5569,-5.566,-5.5691,-5.5713,-5.5814,-5.5805,-5.5802,-5.5777,-5.5842,-5.5873,-5.5887,-5.5725,-5.5724,-5.5724,-5.5724,0,0,-5.4912,-5.5041,-5.506,-5.5106,-5.5205,-5.5268,-5.5351,-5.5441,-5.5484,-5.5558,-5.5627,-5.5741,-5.5739,-5.5792,-5.5821,-5.5873,-5.5947,-5.5863,-5.5866,-5.5874,-5.6061,-5.606,-5.6074,-5.5955,-5.5958,-5.596,-5.6053,0,-5.4998,-5.5146,-5.5191,-5.5315,-5.539,-5.5418,-5.549,-5.5557,-5.5601,-5.5671,-5.5719,-5.5798,-5.579,-5.5822,-5.5875,-5.5926,-5.5984,-5.5921,-5.6018,-5.602,-5.5993,-5.6091,-5.609,-5.6174,-5.6066,-5.6068,-5.607,0,-5.5118,-5.5194,-5.5326,-5.5415,-5.5448,-5.5512,-5.5598,-5.5665,-5.5742,-5.5771,-5.5831,-5.5856,-5.5943,-5.5916,-5.6036,-5.5992,-5.6035,-5.6066,-5.6071,-5.6078,-5.6046,-5.6098,-5.6203,-5.6214,-5.609,-5.6088,-5.6087,0,-5.5153,-5.5289,-5.5385,-5.5424,-5.5531,-5.5575,-5.5622,-5.5697,-5.5748,-5.5824,-5.5858,-5.5943,-5.5988,-5.6053,-5.61,-5.6077,-5.6215,-5.6193,-5.6239,-5.6238,-5.6263,-5.626,-5.6373,-5.6297,-5.6297,-5.6297,-5.6296,0,-5.5243,-5.5321,-5.5402,-5.546,-5.5549,-5.5601,-5.5687,-5.5735,-5.5802,-5.587,-5.5901,-5.5964,-5.6024,-5.6096,-5.6134,-5.6226,-5.6247,-5.6271,-5.6279,-5.6266,-5.6263,-5.6292,-5.6286,-5.63,-5.6299,-5.6299,-5.6298,0,-5.5294,-5.5352,-5.5458,-5.5551,-5.5577,-5.5638,-5.5717,-5.5775,-5.5821,-5.5907,-5.593,-5.6001,-5.6087,-5.6142,-5.6251,-5.6277,-5.6376,-5.6385,-5.635,-5.6353,-5.6395,-5.6389,-5.6527,-5.6547,-5.6461,-5.6462,-5.6462,0,-5.5346,-5.5407,-5.5508,-5.5556,-5.5603,-5.568,-5.5733,-5.5787,-5.5841,-5.5935,-5.5981,-5.6069,-5.6141,-5.6277,-5.6338,-5.6421,-5.643,-5.6473,-5.6442,-5.6427,-5.6427,-5.6422,-5.6427,-5.6476,-5.6477,-5.6478,-5.6478,0,-5.5431,-5.5457,-5.5532,-5.5618,-5.5681,-5.5751,-5.5821,-5.5858,-5.5925,-5.5984,-5.6072,-5.6128,-5.624,-5.6326,-5.6416,-5.6463,-5.6481,-5.6488,-5.6503,-5.6488,-5.6464,-5.6475,-5.636,-5.6483,-5.6483,-5.6483,-5.6482,-5.6482,-5.5482,-5.5538,-5.5617,-5.57,-5.5759,-5.5824,-5.5883,-5.5937,-5.6012,-5.6107,-5.6135,-5.6227,-5.6304,-5.6426,-5.6476,-5.6548,-5.6542,-5.6564,-5.6569,-5.6572,-5.6571,-5.6456,-5.6565,-5.6564,-5.6564,-5.6564,-5.6564,0,-5.5566,-5.5619,-5.5696,-5.5793,-5.5858,-5.5873,-5.5951,-5.6005,-5.6085,-5.6156,-5.6228,-5.6329,-5.6413,-5.6483,-5.6569,-5.6614,-5.6624,-5.6634,-5.663,-5.664,-5.6572,-5.655,-5.6624,-5.6624,-5.6624,-5.6624,-5.6624,-5.6624,-5.5617,-5.5711,-5.5747,-5.587,-5.5923,-5.6014,-5.6057,-5.6117,-5.6174,-5.6286,-5.6356,-5.6402,-5.6472,-5.6565,-5.6643,-5.6661,-5.669,-5.6698,-5.6717,-5.6652,-5.6645,-5.6638,-5.6617,-5.6705,-5.6705,-5.6779,-5.678,-5.678]},{"header":{"parameterUnit":"m.s-1","parameterCategory":1,"la1":30.2991,"la2":30.254,"lo1":-89.0895,"lo2":-89.0444,"dy":0.0017,"dx":0.0017,"nx":28,"ny":28,"refTime":"2025-03-29T21:00:00:Z","depth":0,"parameterNumber":3,"parameterNumberName":"V-component_of_WINDS"},"data":[0,0,0,0,0,0,0,0,0,0,0,0,0,0,0,0,0,0,0,0,0,0,0,0,0,0,0,0,0,0,0,0,0,0,0,0,0,0,0,0,0,0,0,0,0,0,0,0,0,0,0,0,0,0,0,0,0,0,4.5402,4.5403,0,4.5492,4.5493,4.5494,4.5494,4.5492,4.5491,4.549,4.5578,4.5582,4.5585,0,0,0,0,0,0,0,0,0,0,0,0,0,4.5226,4.5229,4.5402,4.5403,4.5404,4.5492,4.5493,4.5494,4.5494,4.5492,4.5491,4.549,4.5577,4.5581,4.5586,0,0,0,0,0,0,0,0,0,0,0,0,0,4.5308,4.523,4.5402,4.5414,4.5416,4.5492,4.5493,4.5495,4.5494,4.5492,4.5491,4.5489,4.5576,4.5581,4.5586,4.5653,0,0,4.5602,4.5604,0,0,0,0,0,0,0,0,4.5303,4.5314,4.5411,4.5414,4.5416,4.548,4.5464,4.5548,4.5495,4.5464,4.549,4.5488,4.5547,4.5554,4.5575,4.5658,4.5661,4.5602,4.5606,4.5608,4.5609,0,0,0,0,0,0,0,4.5298,4.531,4.5437,4.5413,4.5416,4.5415,4.5425,4.548,4.5514,4.5467,4.5467,4.5478,4.5548,4.557,4.5577,4.5663,4.5602,4.5607,4.561,4.5612,4.5807,4.5809,0,0,0,0,0,0,4.529,4.5306,4.5435,4.544,4.5354,4.5419,4.543,4.5461,4.5514,4.552,4.5479,4.5478,4.5562,4.5571,4.558,4.5664,4.5608,4.5613,4.5616,4.5805,4.5808,4.581,0,0,0,0,0,0,4.5286,4.5301,4.5431,4.5373,4.539,4.5424,4.5459,4.5464,4.5486,4.5523,4.5529,4.5496,4.5561,4.5573,4.5636,4.5667,4.5615,4.562,4.5803,4.5806,4.5809,4.5832,0,0,0,0,0,0,4.5281,4.53,4.5326,4.5374,4.5393,4.5486,4.5461,4.5467,4.5496,4.5494,4.554,4.5546,4.556,4.5628,4.5641,4.5673,4.5624,4.58,4.5804,4.5808,4.5829,4.5835,4.5841,0,0,0,0,0,4.5275,4.5328,4.5328,4.5343,4.5427,4.5488,4.5499,4.5515,4.5498,4.5525,4.5549,4.5545,4.5662,4.5635,4.5649,4.5684,4.5798,4.5803,4.5807,4.5826,4.5834,4.5841,0,0,0,0,0,0,4.5281,4.5334,4.5335,4.5405,4.5442,4.5488,4.5522,4.5523,4.5565,4.5562,4.5579,4.5589,4.5653,4.5674,4.5643,4.5753,4.5728,4.5735,4.5737,4.5745,4.5751,4.5745,4.5628,0,0,0,0,0,4.5291,4.5338,4.5381,4.5439,4.5458,4.5487,4.5514,4.5524,4.5562,4.5578,4.5606,4.5643,4.5688,4.5717,4.5761,4.5831,4.5842,4.5862,4.5868,4.5874,4.588,4.5921,4.5931,4.5825,4.5825,4.5825,0,0,4.5311,4.5346,4.5374,4.5441,4.5471,4.5518,4.55,4.555,4.5585,4.5585,4.5647,4.567,4.5712,4.578,4.5811,4.5799,4.5912,4.588,4.5883,4.5888,4.5927,4.5937,4.5946,4.5828,4.5828,4.5827,0,0,4.5373,4.5404,4.5457,4.5488,4.5534,4.5554,4.5566,4.5612,4.5628,4.5691,4.5692,4.5734,4.5811,4.5842,4.5867,4.5943,4.5941,4.5956,4.599,4.603,4.6038,4.6046,4.6074,4.6084,4.5963,4.5963,4.5963,0,4.5392,4.5465,4.5483,4.5535,4.5565,4.5568,4.5622,4.565,4.5708,4.5728,4.5715,4.5814,4.5842,4.5918,4.5937,4.5957,4.5972,4.5951,4.6036,4.6043,4.6051,4.6078,4.6089,4.5964,4.5964,4.5964,4.5964,0,4.5487,4.5538,4.5574,4.5633,4.5666,4.5718,4.5744,4.5776,4.5783,4.5804,4.5869,4.5903,4.5955,4.5973,4.5979,4.6051,4.6043,4.6032,4.6008,4.6062,4.6088,4.6099,4.5967,4.5966,4.5966,4.5965,0,0,4.5555,4.5625,4.5638,4.5665,4.5718,4.5757,4.5809,4.5861,4.5889,4.5929,4.5974,4.604,4.6032,4.6061,4.607,4.6105,4.6165,4.6091,4.6092,4.6105,4.6248,4.6257,4.6269,4.6164,4.6166,4.6168,4.6245,0,4.5624,4.572,4.5738,4.5821,4.5868,4.5873,4.5919,4.5956,4.5977,4.6019,4.6041,4.6089,4.6073,4.6092,4.6126,4.6151,4.6194,4.6145,4.6206,4.6208,4.6197,4.6282,4.6291,4.6362,4.6255,4.6257,4.6258,0,4.5717,4.5762,4.585,4.5899,4.5919,4.596,4.6011,4.6052,4.6094,4.6106,4.614,4.6147,4.6201,4.6174,4.625,4.6216,4.6242,4.6258,4.6261,4.6269,4.6238,4.6293,4.6385,4.6396,4.6274,4.6273,4.6272,0,4.5761,4.5843,4.5907,4.593,4.5987,4.6016,4.6041,4.6082,4.6113,4.6156,4.6177,4.6225,4.6252,4.6289,4.6308,4.6286,4.6384,4.6357,4.6396,4.6396,4.6417,4.6416,4.6516,4.6431,4.6431,4.6431,4.6431,0,4.5837,4.5891,4.5928,4.5967,4.6028,4.6048,4.6108,4.6132,4.6168,4.6213,4.6218,4.6259,4.6282,4.6326,4.6341,4.6403,4.6414,4.6426,4.643,4.6427,4.6425,4.6445,4.6441,4.6434,4.6433,4.6433,4.6432,0,4.5896,4.5923,4.5993,4.6043,4.6056,4.6099,4.6141,4.6179,4.62,4.6256,4.627,4.6303,4.6356,4.6379,4.6442,4.6453,4.6524,4.6523,4.6511,4.6512,4.6551,4.6547,4.6668,4.6686,4.6588,4.6588,4.6589,0,4.5944,4.5986,4.6041,4.6072,4.6098,4.6147,4.618,4.6201,4.6234,4.6287,4.6319,4.6372,4.6416,4.6499,4.6528,4.6578,4.6579,4.6618,4.6586,4.6583,4.6582,4.658,4.6585,4.6624,4.6625,4.6626,4.6627,0,4.6026,4.6038,4.6085,4.6138,4.6177,4.6219,4.6259,4.6284,4.6312,4.6349,4.6404,4.6438,4.6505,4.6558,4.6609,4.6634,4.6635,4.6636,4.6648,4.6646,4.6638,4.6645,4.6528,4.6634,4.6633,4.6632,4.6632,4.6632,4.6083,4.6121,4.6167,4.622,4.6253,4.6292,4.6331,4.6358,4.6405,4.6462,4.6471,4.653,4.6572,4.6642,4.6669,4.6715,4.6705,4.6722,4.6727,4.6731,4.6734,4.663,4.6724,4.6724,4.6723,4.6723,4.6723,0,4.6167,4.6197,4.6246,4.6304,4.6346,4.6345,4.639,4.6425,4.6478,4.6517,4.6561,4.6625,4.6677,4.6711,4.6763,4.6793,4.6795,4.6806,4.6805,4.6811,4.6739,4.6724,4.6804,4.6804,4.6804,4.6804,4.6804,4.6804,4.6216,4.6283,4.63,4.6383,4.6412,4.6471,4.6498,4.6533,4.6566,4.6637,4.6681,4.6703,4.6741,4.6796,4.6844,4.6852,4.6872,4.6884,4.6892,4.6824,4.6816,4.6808,4.6795,4.6888,4.6888,4.6961,4.6962,4.6962]}]]